Date String (YYYY-MM-DD hh:mm:ss) UTC,Instrument flags,absolute air pressure of the measurement (hPa),sample flow rate (lpm),inlet stack bypass flow (lpm),air temperature of the measurement (°C),ambient temperature measured by the external sensor (°C),aerosol sample conditioner tube jacket temperature (°C),OPC LED temperature (°C),internal box temperature (°C),relative humidity of the measurement (%),span deviation,mass concentration of particles derived from Lorenz-Mie calculation of OPC scattering (μg/m³),mass concentration of particles derived from Lorenz-Mie calculation of OPC scattering (μg/m³),mass concentration of particles derived from Lorenz-Mie calculation of OPC scattering (μg/m³)
DateTimeUTC,F1_M11,P_M11,Q1_M11,Q2_M11,T1_M11,T2_M11,T3_M11,T4_M11,T5_M11,U1_M11,ZSPAN_M11,X0_M11,X2_M11,X1_M11
2023-12-08 02:00:00,SystemResetWarning,0818.5,5.00,000.00,024.8,023.8,000.0,033.2,026.0,9.9,0000.0,0004.69,0001.57,0001.10
2023-12-08 02:01:00,SystemResetWarning,0818.7,5.00,000.00,024.8,023.7,000.0,033.2,026.1,9.9,0000.0,0004.93,0001.57,0001.08
2023-12-08 02:02:00,SystemResetWarning,0818.8,5.01,000.00,024.8,023.7,000.0,033.2,026.0,9.8,0000.0,0004.39,0001.55,0001.07
2023-12-08 02:03:00,SystemResetWarning,0818.8,4.99,000.00,024.8,023.7,000.0,033.2,026.0,9.9,0000.0,0006.36,0001.50,0001.06
2023-12-08 02:04:00,SystemResetWarning,0818.8,4.99,000.00,024.8,023.7,000.0,033.2,026.0,9.9,0000.0,0006.46,0001.47,0001.06
2023-12-08 02:05:00,SystemResetWarning,0819.2,5.01,000.00,024.7,023.7,000.0,033.2,025.9,9.9,0000.0,0006.89,0001.46,0001.04
2023-12-08 02:06:00,SystemResetWarning,0818.9,5.01,000.00,024.7,023.7,000.0,033.2,026.0,9.9,0000.0,0007.54,0001.44,0001.03
2023-12-08 02:07:00,SystemResetWarning,0819.0,5.00,000.00,024.7,023.7,000.0,033.2,026.0,9.9,0000.0,0007.52,0001.43,0001.03
2023-12-08 02:08:00,SystemResetWarning,0818.8,5.00,000.00,024.7,023.7,000.0,033.2,025.9,9.8,0000.0,0007.71,0001.47,0001.03
2023-12-08 02:09:00,SystemResetWarning,0819.0,5.00,000.00,024.7,023.7,000.0,033.1,025.8,9.9,0000.0,0007.82,0001.52,0001.04
2023-12-08 02:10:00,SystemResetWarning,0819.4,5.00,000.00,024.6,023.6,000.0,033.1,025.7,9.9,0000.0,0007.58,0001.45,0001.03
2023-12-08 02:11:00,SystemResetWarning,0819.0,5.00,000.00,024.6,023.6,000.0,033.1,025.7,9.9,0000.0,0006.41,0001.44,0001.04
2023-12-08 02:12:00,SystemResetWarning,0818.9,5.00,000.00,024.6,023.6,000.0,033.1,025.7,10.0,0000.0,0006.38,0001.41,0001.05
2023-12-08 02:13:00,SystemResetWarning,0818.8,5.00,000.00,024.6,023.6,000.0,033.1,025.7,10.0,0000.0,0006.84,0001.40,0001.05
2023-12-08 02:14:00,SystemResetWarning,0819.1,4.99,000.00,024.6,023.6,000.0,033.1,025.8,10.0,0000.0,0004.92,0001.44,0001.07
2023-12-08 02:15:00,SystemResetWarning,0819.1,5.00,000.00,024.6,023.6,000.0,033.1,025.8,10.0,0000.0,0004.75,0001.47,0001.08
2023-12-08 02:16:00,SystemResetWarning,0819.0,5.00,000.00,024.6,023.6,000.0,033.0,025.7,10.1,0000.0,0004.29,0001.44,0001.09
2023-12-08 02:17:00,SystemResetWarning,0818.9,5.00,000.00,024.6,023.6,000.0,033.0,025.9,10.1,0000.0,0003.45,0001.46,0001.10
2023-12-08 02:18:00,SystemResetWarning,0819.0,5.00,000.00,024.6,023.6,000.0,033.0,025.9,10.0,0000.0,0003.42,0001.46,0001.10
2023-12-08 02:19:00,SystemResetWarning,0818.9,5.00,000.00,024.6,023.7,000.0,033.0,026.0,10.0,0000.0,0003.07,0001.42,0001.08
2023-12-08 02:20:00,SystemResetWarning,0819.0,5.00,000.00,024.6,023.7,000.0,033.0,026.0,10.1,0000.0,0002.92,0001.39,0001.08
2023-12-08 02:21:00,SystemResetWarning,0819.2,5.00,000.00,024.6,023.7,000.0,033.0,026.0,10.1,0000.0,0002.90,0001.38,0001.07
2023-12-08 02:22:00,SystemResetWarning,0819.3,5.00,000.00,024.6,023.7,000.0,033.0,025.9,10.1,0000.0,0003.95,0001.40,0001.07
2023-12-08 02:23:00,SystemResetWarning,0819.3,5.01,000.00,024.6,023.7,000.0,033.0,025.9,10.1,0000.0,0003.97,0001.42,0001.06
2023-12-08 02:24:00,SystemResetWarning,0819.0,5.01,000.00,024.6,023.7,000.0,033.0,025.9,10.1,0000.0,0003.73,0001.44,0001.05
2023-12-08 02:25:00,SystemResetWarning,0819.0,5.00,000.00,024.6,023.7,000.0,033.0,025.9,10.3,0000.0,0003.95,0001.42,0001.04
2023-12-08 02:26:00,SystemResetWarning,0819.0,5.00,000.00,024.6,023.7,000.0,033.0,026.0,10.3,0000.0,0003.90,0001.39,0001.03
2023-12-08 02:27:00,SystemResetWarning,0819.1,4.99,000.00,024.6,023.7,000.0,033.0,026.0,10.4,0000.0,0004.01,0001.42,0001.02
2023-12-08 02:28:00,SystemResetWarning,0819.1,5.00,000.00,024.6,023.7,000.0,033.0,025.9,10.5,0000.0,0004.12,0001.43,0001.01
2023-12-08 02:29:00,SystemResetWarning,0819.1,5.01,000.00,024.6,023.7,000.0,033.0,025.9,10.4,0000.0,0004.25,0001.46,0001.01
2023-12-08 02:30:00,SystemResetWarning,0819.2,5.00,000.00,024.6,023.7,000.0,033.0,026.0,10.4,0000.0,0004.91,0001.46,0001.02
2023-12-08 02:31:00,SystemResetWarning,0819.3,5.00,000.00,024.6,023.7,000.0,033.0,025.9,10.2,0000.0,0005.41,0001.45,0001.02
2023-12-08 02:32:00,SystemResetWarning,0819.2,5.00,000.00,024.6,023.7,000.0,033.0,025.9,10.1,0000.0,0005.52,0001.48,0001.02
2023-12-08 02:33:00,SystemResetWarning,0819.1,5.00,000.00,024.6,023.7,000.0,033.0,026.0,10.1,0000.0,0004.60,0001.44,0001.02
2023-12-08 02:34:00,SystemResetWarning,0819.1,4.99,000.00,024.6,023.7,000.0,033.0,026.0,10.3,0000.0,0004.11,0001.40,0001.03
2023-12-08 02:35:00,SystemResetWarning,0819.4,4.98,000.00,024.6,023.7,000.0,033.0,026.0,10.5,0000.0,0003.98,0001.41,0001.03
2023-12-08 02:36:00,SystemResetWarning,0819.0,5.00,000.00,024.6,023.7,000.0,033.0,026.0,10.4,0000.0,0003.55,0001.40,0001.03
2023-12-08 02:37:00,SystemResetWarning,0819.0,5.00,000.00,024.6,023.7,000.0,033.0,026.0,10.4,0000.0,0004.40,0001.42,0001.03
2023-12-08 02:38:00,SystemResetWarning,0819.3,5.00,000.00,024.7,023.7,000.0,033.0,026.0,10.5,0000.0,0004.53,0001.39,0001.03
2023-12-08 02:39:00,SystemResetWarning,0819.0,5.01,000.00,024.7,023.7,000.0,033.0,026.1,10.4,0000.0,0004.31,0001.35,0001.02
2023-12-08 02:40:00,SystemResetWarning,0819.0,5.01,000.00,024.7,023.7,000.0,033.0,026.0,10.4,0000.0,0004.60,0001.29,0001.02
2023-12-08 02:41:00,SystemResetWarning,0819.1,5.01,000.00,024.7,023.7,000.0,033.0,026.1,10.3,0000.0,0004.49,0001.30,0001.03
2023-12-08 02:42:00,SystemResetWarning,0819.1,5.00,000.00,024.7,023.7,000.0,033.0,026.1,10.4,0000.0,0004.03,0001.32,0001.03
2023-12-08 02:43:00,SystemResetWarning,0819.1,5.00,000.00,024.7,023.7,000.0,033.0,026.1,10.4,0000.0,0004.14,0001.33,0001.03
2023-12-08 02:44:00,SystemResetWarning,0818.9,4.99,000.00,024.7,023.7,000.0,033.0,026.1,10.3,0000.0,0004.38,0001.42,0001.03
2023-12-08 02:45:00,SystemResetWarning,0818.9,5.00,000.00,024.7,023.7,000.0,033.0,026.1,10.4,0000.0,0004.39,0001.42,0001.02
2023-12-08 02:46:00,SystemResetWarning,0819.2,5.00,000.00,024.7,023.7,000.0,033.0,026.1,10.4,0000.0,0004.25,0001.38,0001.02
2023-12-08 02:47:00,SystemResetWarning,0819.3,5.01,000.00,024.7,023.7,000.0,033.0,026.1,10.5,0000.0,0004.23,0001.38,0001.02
2023-12-08 02:48:00,SystemResetWarning,0818.9,5.01,000.00,024.7,023.7,000.0,033.0,026.1,10.6,0000.0,0003.46,0001.37,0001.02
2023-12-08 02:49:00,SystemResetWarning,0819.0,4.99,000.00,024.7,023.7,000.0,033.0,026.1,10.5,0000.0,0003.22,0001.39,0001.02
2023-12-08 02:50:00,SystemResetWarning,0818.9,4.99,000.00,024.7,023.7,000.0,033.0,026.1,10.5,0000.0,0003.52,0001.46,0001.04
2023-12-08 02:51:00,SystemResetWarning,0819.0,4.99,000.00,024.7,023.7,000.0,033.0,026.1,10.5,0000.0,0003.26,0001.51,0001.04
2023-12-08 02:52:00,SystemResetWarning,0819.1,5.00,000.00,024.7,023.7,000.0,033.0,026.1,10.5,0000.0,0002.66,0001.53,0001.03
2023-12-08 02:53:00,SystemResetWarning,0819.2,5.00,000.00,024.7,023.7,000.0,033.0,026.1,10.5,0000.0,0003.01,0001.50,0001.03
2023-12-08 02:54:00,SystemResetWarning,0819.1,5.00,000.00,024.7,023.8,000.0,033.0,026.1,10.5,0000.0,0003.55,0001.47,0001.03
2023-12-08 02:55:00,SystemResetWarning,0818.9,5.00,000.00,024.7,023.8,000.0,033.0,026.1,10.5,0000.0,0003.44,0001.39,0001.02
2023-12-08 02:56:00,SystemResetWarning,0818.9,5.00,000.00,024.7,023.8,000.0,033.0,026.1,10.6,0000.0,0003.68,0001.41,0001.01
2023-12-08 02:57:00,SystemResetWarning,0818.9,4.99,000.00,024.7,023.8,000.0,033.0,026.1,10.6,0000.0,0003.76,0001.43,0001.01
2023-12-08 02:58:00,SystemResetWarning,0819.3,4.99,000.00,024.7,023.8,000.0,033.0,026.1,10.5,0000.0,0003.91,0001.43,0001.01
2023-12-08 02:59:00,SystemResetWarning,0819.3,4.99,000.00,024.7,023.8,000.0,033.0,026.1,10.5,0000.0,0004.11,0001.47,0001.02
